www.pogodaiklimat.ru

Погода и климат >> Архив погоды >> Казахстан >> Саумалколь


ПОГОДА в Саумалколе

  • Прогноз погоды в Саумалколе
  • Монитор погоды в Саумалколе

АРХИВ ПОГОДЫ в Саумалколе

Время (UTC), дата Ветер
(напр.,м/с)
 
Видим.   Явления Облачность Т
(С)
Тd
(С)
f
(%)
Тe
(С)
Тes
(С)
Комфортность P
(гПа)
Po
(гПа)
Тmin
(С)
Tmax
(С)
R
(мм)
R24
(мм)
S
(см)
12 18.05 СЗ 3 20 км {туман} 9/9 600 м
[Sc]
+10.1 +2.2 58 +8 +9 1004.1 965.8
15 18.05 СЗ 2 20 км 6/3 600 м
[Sc Ci]
+9.9 -0.5 48 +9 +9 1004.2 965.9 +10.6
18 18.05 ЮЗ 1 н/о ясно +3.4 -2.5 65 +2 +2 1005.8 966.5 +10.6
21 18.05 штиль 0 н/о ясно +2.4 -2.8 69 +2 +2 1006.0 966.6
00 19.05 ЮЗ 1 4000 м дымка 9/9 600 м
[Sc]
+3.2 -0.5 77 +2 +2 1004.4 965.2
03 19.05 ЮЗ 8-15
{17}
20 км 8/3 600 м
[Sc Ac cast]
+7.4 +1.1 64 +3 +3 1002.4 963.8
06 19.05 ЮЗ 6
{15}
20 км {ливн. осадки} 9/9 600 м
[Sc]
+10.2 +2.9 60 +7 +8 1001.5 963.3 +2.2
09 19.05 З 8-16
{18}
20 км 10/10 600 м
[Sc]
+9.7 +4.2 69 +6 +6 1001.5 963.3
12 19.05 З 7
{16}
20 км в посл. час ливневой дождь 6/6 600 м
[Sc]
+7.7 +2.5 70 +3 +4 1003.8 965.1
15 19.05 ЮЗ 6 20 км 4/4 600 м
[Sc]
+8.8 -0.8 51 +5 +5 1004.4 965.9 +13.0
18 19.05 З 3 н/о ясно +4.6 -2.6 60 +1 +1 1006.7 967.5 +13.0 0.6
21 19.05 штиль 0 н/о дымка ясно +1.6 -3.1 71 +1 +1 1007.2 967.6
00 20.05 штиль 0 20 км дымка ясно +0.5 -2.7 79 -1 -0 1008.0 968.2
03 20.05 штиль 0 20 км 6/3 600 м
[Sc Ac cast]
+5.0 -0.8 66 +4 +8 1007.6 968.4
06 20.05 З 4 20 км 10/10 600 м
[Sc]
+7.9 +1.4 63 +5 +5 1006.0 967.4 0.0
09 20.05 СЗ 2 20 км в посл. час ливневой дождь 10/10 600 м
[Cb cap]
+7.4 +4.0 79 +5 +5 1005.0 966.3
12 20.05 СЗ 5 4000 м дымка {ливн. осадки} 8/8 600 м
[Sc]
+7.2 +4.0 80 +3 +4 1004.7 966.0
15 20.05 СЗ 2 4000 м дымка 6/0
[Ac lent Ci fib]
+8.5 +3.7 72 +7 +7 1004.5 966.0 +9.1
18 20.05 штиль 0 н/о дымка 8/0
[Ac As]
+2.8 +0.2 83 +2 +2 1006.7 967.2 +9.1 0.7
21 20.05 СЗ 1 н/о дымка 3/0
[Ac trans]
+2.2 +0.1 86 +1 +1 1006.9 967.4
00 21.05 штиль 0 4000 м дымка ясно 0.0 -0.6 96 -1 -1 1008.0 968.1
03 21.05 З 3 4000 м дымка ясно +5.4 +1.2 74 +2 +7 1008.2 969.1
06 21.05 З 4 20 км 8/8 600 м
[Cu Sc]
+10.2 -0.1 49 +8 +10 1007.7 969.3 -0.6
09 21.05 ЮЗ 5 20 км {ливн. осадки} 9/9 600 м
[Cu Sc]
+11.8 -1.0 41 +10 +11 1007.6 969.4
12 21.05 СЗ 7 20 км {ливн. осадки} 8/5 600 м
[Cu med, cong Ac cast Ci ing]
+11.8 +0.4 45 +9 +10 1008.2 970.0
15 21.05 З 3 20 км 8/8 600 м
[Sc]
+9.6 +3.5 66 +8 +8 1009.1 970.5 +13.3
18 21.05 З 2 н/о дымка 6/6 600 м
[Sc]
+4.8 +1.3 78 +2 +2 1010.7 971.4 +13.3 0.0
21 21.05 СЗ 1 н/о слаб. ливневой дождь 10/10 600 м
[Cb cap]
+4.0 +2.3 89 +3 +3 1010.8 971.4
00 22.05 СЗ 3 20 км в посл. час ливневой дождь 10/10 600 м
[Cb cap]
+3.5 +1.5 87 -0 -0 1010.8 971.3
03 22.05 З 2 10 км слаб. ливневой дождь 10/10 600 м
[Cb cap]
+3.6 +2.4 92 +1 +1 1011.6 972.1
06 22.05 СЗ 4 10 км слаб. ливневой дождь 10/10 600 м
[Cb cap]
+4.1 +1.1 81 -0 -0 1012.9 973.4 +3.5 1
09 22.05 СЗ 3 20 км {ливн. осадки} 10/10 600 м
[Sc]
+7.9 +1.6 64 +5 +5 1012.6 973.7
12 22.05 З 6 20 км в посл. час ливневой дождь 10/10 600 м
[Cb cap]
+7.0 -2.1 52 +3 +3 1014.0 974.9
15 22.05 СЗ 4 20 км 9/8 600 м
[Sc Ac cast]
+7.6 +1.6 66 +4 +4 1014.7 975.6 +9.0
18 22.05 ЮЗ 2 н/о дымка 9/6 600 м
[Sc Ac trans]
+5.0 +0.4 72 +3 +3 1016.1 976.6 +9.0 4
21 22.05 З 1 н/о дымка 8/0
[Ac As]
+2.4 -0.9 79 +1 +1 1017.0 977.1
00 23.05 штиль 0 4000 м дымка ясно +1.8 -0.4 85 +1 +1 1017.7 977.7
03 23.05 штиль 0 4000 м дымка 3/0
[Ac trans]
+5.4 +1.7 77 +5 +11 1017.4 977.9
06 23.05 ЮЗ 2 20 км 8/8 1000 м
[Cu med, cong]
+14.4 +2.0 43 +14 +17 1015.3 977.1 +0.7
09 23.05 ЮЗ 5 20 км 8/8 1000 м
[Cu med, cong]
+15.8 +0.1 34 +15 +16 1013.7 975.7
12 23.05 ЮЗ 4 20 км 4/4 1000 м
[Cu med, cong]
+18.1 +0.3 30 +18 +20 1011.4 973.8
15 23.05 ЮЗ 4 20 км 6/6 1000 м
[Cu med, cong]
+17.0 -2.1 27 +17 +17 1009.9 972.3 +19.9
18 23.05 ЮЗ 3 н/о 9/9 600 м
[Sc]
+14.4 +3.6 48 +14 +14 1009.8 971.9 +19.9
21 23.05 ЮЗ 5 н/о 9/9 600 м
[Sc]
+13.2 +6.7 65 +11 +11 1008.8 970.7
00 24.05 ЮЗ 4 20 км дымка 6/4 600 м
[Sc Ac trans]
+12.0 +6.4 69 +10 +10 1008.5 970.3
03 24.05 ЮЗ 5 20 км ясно +15.3 +5.6 52 +14 +17 1007.8 970.0
06 24.05 ЮЗ 10-19
{22}
20 км 6/0
[Ci ing]
+21.6 -0.6 23 +21 +22 комфорт 1006.3 969.4 +11.1
09 24.05 З 12-21
{24}
20 км пыльный позёмок 9/0
[Cc]
+22.9 -1.0 20 +22 +22 комфорт 1004.7 968.0
12 24.05 З 10-20
{25}
20 км пыльный позёмок 9/0
[Cc]
+23.4 -0.7 20 +22 +22 комфорт 1003.8 967.2
15 24.05 ЮЗ 7
{23}
20 км {метель} 8/0
[Cs]
+21.3 -1.2 22 +21 +21 комфорт 1003.6 966.7 +26.8
18 24.05 ЮЗ 5 н/о {метель} 8/0
[Ac cast Ci fib]
+17.4 +0.2 31 +17 +17 1003.5 966.2 +26.8
00 25.05 ЮЗ 6 20 км 8/8 600 м
[Sc]
+14.2 +1.5 42 +13 +13 1000.9 963.2
03 25.05 СЗ 5 10 км слаб. ливневой дождь 10/10 600 м
[Cb cap]
+8.6 +7.3 92 +5 +5 1004.1 965.7
06 25.05 С 6 10 км слаб. ливневой дождь 10/10 600 м
[Cb cap]
+3.6 +2.6 93 -2 -2 1007.9 968.5 +8.6 0.4

 

Местоположение метеостанции Саумалколь (Северо-Казахстанская область, Казахстан): широта 53.32 долгота 68.10 высота над уровнем моря 319 м.

В архиве по умолчанию представлена погода в Саумалколе за последнюю неделю. Архивные данные за месяц целиком и за предыдущие месяцы, начиная с января 2011 года, Вы можете получить, выбрав интересующий диапазон дат из раскрывающегося списка и нажав кнопку "Ввод!".


*Определитесь, кто Вы:
робот инопланетянин человек

Внимание! Время в таблицах - всемирное. Для получения местного времени необходимо прибавить поправку, которая равна 5 ч.

Смотрите также архив погоды в соседних городах и на ближайших метеорологических станциях:

Погода в Еленовке (Акмолинская область, Казахстан) (53 км)
Погода в Сергеевке (Северо-Казахстанская область, Казахстан) (77 км)
Погода в Приозерном (Акмолинская область, Казахстан) (83 км)
Погода в Зеренде (Акмолинская область, Казахстан) (84 км)
Погода в Кокшетау (Акмолинская область, Казахстан) (85 км)
Погода в Рузаевке (Северо-Казахстанская область, Казахстан) (94 км)
Погода в Балкашино (Акмолинская область, Казахстан) (98 км)
Погода в Тимирязево (Северо-Казахстанская область, Казахстан) (117 км)
Погода в Тайынше (Северо-Казахстанская область, Казахстан) (125 км)
Погода в Благовещенке (Северо-Казахстанская область, Казахстан) (138 км)

Пояснения к столбцам:

Ветер - указаны скорость ветра в м/с - средняя за 10 мин, порывы в срок и между сроками (в фигурных скобках) и направление, откуда дует ветер: С - северный, СВ - северо-восточный, В - восточный, ЮВ - юго-восточный, Ю - южный, ЮЗ - юго-западный, З - западный, СЗ - северо-западный.
Видимость - горизонтальная дальность видимости в метрах или километрах. При видимости от 1 до 10 км при отсутствии осадков обычно наблюдается дымка, при ухудшении видимости до 1 км и менее - туман. В сухую погоду видимость может ухудшаться дымом, пылью или мглою.
Явления - указаны атмосферные явления, наблюдавшиеся в срок или в последний час перед сроком; фигурными скобками обозначены явления, наблюдавшиеся между сроками (за 1-3 часа до срока); квадратными скобками обозначены град или гололедные отложения с указанием их диаметра в мм.
Облачность - указаны через наклонную черту общая и нижняя облачность в баллах и высота нижней границы облаков в метрах; квадратными скобками обозначены формы облаков: Ci - перистые, Cs - перисто-слоистые, Cc - перисто-кучевые, Ac - высококучевые, As - высокослоистые, Sc - слоисто-кучевые, Ns - слоисто-дождевые, Cu - кучевые, Cb - кучево-дождевые. Подробнее классификацию облаков см. в Атласе облаков (PDF).
T - Температура воздуха - температура, измеренная на высоте 2 м над землей.
Td - Температура точки росы - температура, при понижении до которой содержащийся в воздухе водяной пар достигнет насыщения.
f - Относительная влажность воздуха - влажноcть воздуха, измеренная на высоте 2 м над землей.
Te - Эффективная температура - температура, которую ощущает одетый по сезону человек в тени. Характеристика душности погоды. При расчете учитывается влияние влажности воздуха и скорости ветра на теплоощущения человека.
Tes - Эффективная температура на солнце - температура, которую ощущает человек, с поправкой на солнечный нагрев. Характеристика знойности погоды. Зависит от высоты солнца над горизонтом, облачности и скорости ветра. Ночью, в пасмурную погоду, а также при ветре 12 м/с и более поправка равна нулю.
P - Атмосферное давление - приведенное к уровню моря атмосферное давление.
Po - Атмосферное давление - измеренное на уровне метеостанции атмосферное давление.
Tmin - Минимальная температура - минимум температуры воздуха на высоте 2 м над землей.
Tmax - Максимальная температура - максимум температуры воздуха на высоте 2 м над землей.
R - Количество осадков - Количество выпавших осадков за период времени, мм. При наведении курсора мыши на число - период времени, за который выпало указанное количество осадков.
R24 - Количество осадков - Количество выпавших осадков за 24 часа, мм.
S - Снежный покров - Высота снежного покрова, см. При наведении курсора мыши на число - состояние снежного покрова и степень покрытия местности в баллах.